timestamp,surface_pressure_avg,surface_temp_avg,battery_voltage,lat,long
2019-06-18 00:00:00+00:00,369.5912,6.89,12.97,47.84626,-54.09684
2019-06-18 00:10:00+00:00,364.9698,6.87,12.89,47.84626,-54.09684
2019-06-18 00:20:00+00:00,365.918,6.8,12.97,47.84626,-54.09684
2019-06-18 00:30:00+00:00,367.6446,6.9,12.97,47.84626,-54.09684
2019-06-18 00:40:00+00:00,363.3546,7.65,12.97,47.84626,-54.09684
2019-06-18 00:50:00+00:00,359.1895,7.76,12.97,47.84626,-54.09684
2019-06-18 01:00:00+00:00,355.7847,7.71,12.89,47.84626,-54.09684
2019-06-18 01:10:00+00:00,354.9596,8.14,12.81,47.84626,-54.09684
2019-06-18 01:20:00+00:00,350.293,7.9,12.89,47.84626,-54.09684
2019-06-18 01:30:00+00:00,342.9946,7.5,12.97,47.84626,-54.09684
2019-06-18 01:40:00+00:00,334.7581,7.38,12.97,47.84626,-54.09684
2019-06-18 01:50:00+00:00,329.9563,7.5,12.97,47.84626,-54.09684
2019-06-18 02:00:00+00:00,325.5079,7.4,12.89,47.84626,-54.09684
2019-06-18 02:10:00+00:00,317.788,7.59,12.81,47.84626,-54.09684
2019-06-18 02:20:00+00:00,310.5181,7.76,12.89,47.84626,-54.09684
2019-06-18 02:30:00+00:00,304.0613,8.05,12.89,47.84626,-54.09684
2019-06-18 02:40:00+00:00,295.4964,8.31,12.97,47.84626,-54.09684
2019-06-18 02:50:00+00:00,287.2264,8.5,12.97,47.84626,-54.09684
2019-06-18 03:00:00+00:00,281.983,8.24,12.89,47.84626,-54.09684
2019-06-18 03:10:00+00:00,274.2847,8.37,12.81,47.84626,-54.09684
2019-06-18 03:20:00+00:00,261.9081,8.4,12.89,47.84626,-54.09684
2019-06-18 03:30:00+00:00,250.4247,8.57,12.89,47.84626,-54.09684
2019-06-18 03:40:00+00:00,245.0598,8.6,12.89,47.84626,-54.09684
2019-06-18 03:50:00+00:00,236.5214,8.69,12.97,47.84626,-54.09684
2019-06-18 04:00:00+00:00,228.0481,8.7,12.81,47.84626,-54.09684
2019-06-18 04:10:00+00:00,220.5898,8.7,12.81,47.84626,-54.09684
2019-06-18 04:20:00+00:00,212.7181,8.7,12.89,47.84626,-54.09684
2019-06-18 04:30:00+00:00,204.4798,8.7,12.89,47.84626,-54.09684
2019-06-18 04:40:00+00:00,199.3748,8.61,12.89,47.84626,-54.09684
2019-06-18 04:50:00+00:00,194.6281,8.6,12.89,47.84626,-54.09684
2019-06-18 05:00:00+00:00,188.0698,8.5,12.81,47.84626,-54.09684
2019-06-18 05:10:00+00:00,182.7231,8.5,12.73,47.84626,-54.09684
2019-06-18 05:20:00+00:00,182.0065,8.4,12.81,47.84626,-54.09684
2019-06-18 05:30:00+00:00,182.4198,8.3,12.81,47.84626,-54.09684
2019-06-18 05:40:00+00:00,181.2065,8.38,12.89,47.84626,-54.09684
2019-06-18 05:50:00+00:00,177.1414,8.26,12.89,47.84626,-54.09684
2019-06-18 06:00:00+00:00,179.4698,8.19,12.81,47.84626,-54.09684
2019-06-18 06:10:00+00:00,187.6664,8.1,12.73,47.84626,-54.09684
2019-06-18 06:20:00+00:00,187.4315,8.08,12.81,47.84626,-54.09684
2019-06-18 06:30:00+00:00,182.6331,8.08,12.81,47.84626,-54.09684
2019-06-18 06:40:00+00:00,184.8548,8.0,12.81,47.84626,-54.09684
2019-06-18 06:50:00+00:00,191.7515,8.0,12.81,47.84626,-54.09684
2019-06-18 07:00:00+00:00,198.4182,8.0,12.81,47.84626,-54.09684
2019-06-18 07:10:00+00:00,202.1731,8.0,12.73,47.84626,-54.09684
2019-06-18 07:20:00+00:00,208.0398,8.02,12.81,47.84626,-54.09684
2019-06-18 07:30:00+00:00,214.4965,8.05,12.81,47.84626,-54.09684
2019-06-18 07:40:00+00:00,214.7264,8.1,12.81,47.84626,-54.09684
2019-06-18 07:50:00+00:00,213.9281,8.1,12.81,47.84626,-54.09684
2019-06-18 08:00:00+00:00,219.7615,8.1,12.73,47.84626,-54.09684
2019-06-18 08:10:00+00:00,226.3498,8.1,12.65,47.84626,-54.09684
2019-06-18 08:20:00+00:00,226.0365,8.1,12.73,47.84626,-54.09684
2019-06-18 08:30:00+00:00,225.7431,8.1,12.81,47.84626,-54.09684
2019-06-18 08:40:00+00:00,230.8914,8.19,12.81,47.84626,-54.09684
2019-06-18 08:50:00+00:00,237.6314,8.13,12.81,47.84626,-54.09684
2019-06-18 09:00:00+00:00,239.0015,8.39,12.73,47.84626,-54.09684
2019-06-18 09:10:00+00:00,240.3081,8.5,12.65,47.84626,-54.09684
2019-06-18 09:20:00+00:00,245.5947,8.2,12.73,47.84626,-54.09684
2019-06-18 09:30:00+00:00,251.933,8.21,12.81,47.84626,-54.09684
2019-06-18 09:40:00+00:00,252.7214,8.42,12.81,47.84626,-54.09684
2019-06-18 09:50:00+00:00,258.6414,8.2,12.81,47.84626,-54.09684
2019-06-18 10:00:00+00:00,269.478,7.9,12.81,47.84626,-54.09684
2019-06-18 10:10:00+00:00,277.0197,8.26,12.81,47.84626,-54.09684
2019-06-18 10:20:00+00:00,281.9314,7.94,12.89,47.84626,-54.09684
2019-06-18 10:30:00+00:00,289.5448,7.6,13.05,47.84626,-54.09684
2019-06-18 10:40:00+00:00,296.698,7.7,13.21,47.84626,-54.09684
2019-06-18 10:50:00+00:00,303.288,7.69,13.29,47.84626,-54.09684
2019-06-18 11:00:00+00:00,310.6998,7.5,13.37,47.84626,-54.09684
2019-06-18 11:10:00+00:00,316.0212,7.49,13.53,47.84626,-54.09684
2019-06-18 11:20:00+00:00,317.163,7.62,13.84,47.84626,-54.09684
2019-06-18 11:30:00+00:00,322.363,7.6,13.92,47.84626,-54.09684
2019-06-18 11:40:00+00:00,330.1563,7.4,14.08,47.84626,-54.09684
2019-06-18 11:50:00+00:00,332.8546,7.2,14.08,47.84626,-54.09684
2019-06-18 12:00:00+00:00,331.8846,7.4,14.0,47.84626,-54.09684
2019-06-18 12:10:00+00:00,336.7797,7.4,14.88,47.84626,-54.09684
2019-06-18 12:20:00+00:00,336.843,7.3,14.32,47.84626,-54.09684
2019-06-18 12:30:00+00:00,331.3763,7.3,14.32,47.84626,-54.09684
2019-06-18 12:40:00+00:00,336.668,7.34,14.4,47.84626,-54.09684
2019-06-18 12:50:00+00:00,342.8295,7.42,14.48,47.84626,-54.09684
2019-06-18 13:00:00+00:00,336.303,7.6,14.4,47.84626,-54.09684
2019-06-18 13:10:00+00:00,329.903,7.7,14.48,47.84626,-54.09684
2019-06-18 13:20:00+00:00,334.0797,7.84,14.8,47.84626,-54.09684
2019-06-18 13:30:00+00:00,329.9646,8.1,14.64,47.84626,-54.09684
2019-06-18 13:40:00+00:00,318.973,7.9,14.64,47.84626,-54.09684
2019-06-18 13:50:00+00:00,319.8979,7.43,14.72,47.84626,-54.09684
2019-06-18 14:00:00+00:00,321.4497,7.3,14.4,47.84626,-54.09684
2019-06-18 14:10:00+00:00,309.6447,6.98,14.48,47.84626,-54.09684
2019-06-18 14:20:00+00:00,301.2864,6.68,14.48,47.84626,-54.09684
2019-06-18 14:30:00+00:00,302.1929,6.04,14.48,47.84626,-54.09684
2019-06-18 14:40:00+00:00,298.6031,5.99,14.56,47.84626,-54.09684
2019-06-18 14:50:00+00:00,285.623,5.9,14.64,47.84626,-54.09684
2019-06-18 15:00:00+00:00,280.7781,5.93,14.48,47.84626,-54.09684
2019-06-18 15:10:00+00:00,277.5964,6.07,14.4,47.84626,-54.09684
2019-06-18 15:20:00+00:00,266.8247,6.86,14.56,47.84626,-54.09684
2019-06-18 15:30:00+00:00,253.1447,7.1,14.56,47.84626,-54.09684
2019-06-18 15:40:00+00:00,246.6797,7.23,14.48,47.84626,-54.09684
2019-06-18 15:50:00+00:00,241.548,7.58,14.48,47.84626,-54.09684
2019-06-18 16:00:00+00:00,231.3148,7.67,14.48,47.84626,-54.09684
2019-06-18 16:10:00+00:00,221.8664,7.84,14.32,47.84626,-54.09684
2019-06-18 16:20:00+00:00,217.4664,8.0,14.4,47.84626,-54.09684
2019-06-18 16:30:00+00:00,209.5731,8.1,14.4,47.84626,-54.09684
2019-06-18 16:40:00+00:00,199.5948,8.13,14.48,47.84626,-54.09684
2019-06-18 16:50:00+00:00,193.7798,8.68,14.4,47.84626,-54.09684
2019-06-18 17:00:00+00:00,189.5765,8.9,14.32,47.84626,-54.09684
2019-06-18 17:10:00+00:00,184.2715,8.52,14.24,47.84626,-54.09684
2019-06-18 17:20:00+00:00,179.9214,8.4,14.32,47.84626,-54.09684
2019-06-18 17:30:00+00:00,176.4131,8.4,14.24,47.84626,-54.09684
2019-06-18 17:40:00+00:00,172.9098,8.4,14.24,47.84626,-54.09684
2019-06-18 17:50:00+00:00,173.5898,8.3,14.24,47.84626,-54.09684
2019-06-18 18:00:00+00:00,178.2148,8.24,14.08,47.84626,-54.09684
2019-06-18 18:10:00+00:00,179.3514,8.26,14.0,47.84626,-54.09684
2019-06-18 18:20:00+00:00,178.6432,8.29,14.08,47.84626,-54.09684
2019-06-18 18:30:00+00:00,183.5114,8.28,14.08,47.84626,-54.09684
2019-06-18 18:40:00+00:00,190.1865,8.24,14.08,47.84626,-54.09684
2019-06-18 18:50:00+00:00,193.1398,8.42,14.08,47.84626,-54.09684
2019-06-18 19:00:00+00:00,194.4231,8.8,14.0,47.84626,-54.09684
2019-06-18 19:10:00+00:00,201.9781,8.89,13.92,47.84626,-54.09684
2019-06-18 19:20:00+00:00,207.4498,8.26,14.0,47.84626,-54.09684
2019-06-18 19:30:00+00:00,208.9748,8.0,14.0,47.84626,-54.09684
2019-06-18 19:40:00+00:00,213.3831,7.9,14.0,47.84626,-54.09684
2019-06-18 19:50:00+00:00,221.8514,7.8,14.0,47.84626,-54.09684
2019-06-18 20:00:00+00:00,226.0831,7.9,14.0,47.84626,-54.09684
2019-06-18 20:10:00+00:00,227.8964,7.7,13.84,47.84626,-54.09684
2019-06-18 20:20:00+00:00,233.3214,7.7,13.92,47.84626,-54.09684
2019-06-18 20:30:00+00:00,238.3181,7.73,13.92,47.84626,-54.09684
2019-06-18 20:40:00+00:00,240.378,7.8,13.92,47.84626,-54.09684
2019-06-18 20:50:00+00:00,242.0581,7.94,14.0,47.84626,-54.09684
2019-06-18 21:00:00+00:00,248.8398,8.57,13.92,47.84626,-54.09684
2019-06-18 21:10:00+00:00,253.5581,8.35,13.76,47.84626,-54.09684
2019-06-18 21:20:00+00:00,259.7231,8.1,13.84,47.84626,-54.09684
2019-06-18 21:30:00+00:00,267.2214,8.0,13.84,47.84626,-54.09684
2019-06-18 21:40:00+00:00,277.1297,8.06,13.84,47.84626,-54.09684
2019-06-18 21:50:00+00:00,282.3564,8.0,13.84,47.84626,-54.09684
2019-06-18 22:00:00+00:00,289.723,8.04,13.76,47.84626,-54.09684
2019-06-18 22:10:00+00:00,297.978,8.08,13.68,47.84626,-54.09684
2019-06-18 22:20:00+00:00,304.2881,8.1,13.68,47.84626,-54.09684
2019-06-18 22:30:00+00:00,307.848,8.1,13.68,47.84626,-54.09684
2019-06-18 22:40:00+00:00,317.7613,8.1,13.68,47.84626,-54.09684
2019-06-18 22:50:00+00:00,327.053,8.1,13.68,47.84626,-54.09684
2019-06-18 23:00:00+00:00,333.1547,8.1,13.53,47.84626,-54.09684
2019-06-18 23:10:00+00:00,340.438,8.09,13.37,47.84626,-54.09684
2019-06-18 23:20:00+00:00,350.4279,8.0,13.37,47.84626,-54.09684
2019-06-18 23:30:00+00:00,355.4631,7.61,13.29,47.84626,-54.09684
2019-06-18 23:40:00+00:00,356.038,7.3,13.29,47.84626,-54.09684
2019-06-18 23:50:00+00:00,360.4446,7.2,13.29,47.84626,-54.09684
